Overview Statistics Trail Chart Weather Telemetry Raw packets
 

This is the latest recevied weather packets stored in our database for station/object G4WLC-1. If no packets are shown the sender has not sent any weather packets the latest 10 day(s).

<< 87 88 89 90 91 92 93 >>
Time Temp. Humidity Pressure Rain* Wind** Luminosity Snow
1788021438 21.67° C 81% 1001.1 hPa 0 mm - - -
1788021138 21.11° C 83% 1001 hPa 0 mm - - -
1788020838 21.11° C 85% 1001.1 hPa 0 mm - - -
1788020544 21.11° C 86% 1001.1 hPa 0 mm - - -
1788020238 20.56° C 85% 1001 hPa 0 mm - - -
1788019938 20.56° C 82% 1001.1 hPa 0 mm - - -
1788019638 20.56° C 83% 1000.9 hPa 0 mm - - -
1788019338 21.11° C 84% 1001 hPa 0 mm - - -
1788019038 21.11° C 83% 1000.9 hPa 0 mm - - -
1788018738 20.56° C 86% 1000.8 hPa 0 mm - - -
1788018438 20° C 90% 1000.8 hPa 0 mm - - -
1788018138 20° C 93% 1000.7 hPa 0 mm - - -
1788017838 19.44° C 92% 1000.8 hPa 0 mm - - -
1788017538 19.44° C 92% 1000.7 hPa 0 mm - - -
1788017238 19.44° C 92% 1000.6 hPa 0 mm - - -
1788016938 19.44° C 93% 1000.6 hPa 0 mm - - -
1788016638 19.44° C 92% 1000.7 hPa 0 mm - - -
1788016338 19.44° C 92% 1000.5 hPa 0 mm - - -
1788016038 19.44° C 92% 1000.6 hPa 0 mm - - -
1788015738 20° C 92% 1000.6 hPa 0 mm - - -
1788015438 19.44° C 92% 1000.5 hPa 0 mm - - -
1788015138 19.44° C 92% 1000.5 hPa 0 mm - - -
1788014838 19.44° C 93% 1000.5 hPa 0 mm - - -
1788014538 20° C 94% 1000.5 hPa 0 mm - - -
1788014238 19.44° C 94% 1000.4 hPa 0 mm - - -

* Rain latest hour (hover to see other rain measurements)
** Current wind speed in m/s (hover to see current wind gust speed)